Location: Red Bud (historical)
(37.7759°N, 88.4053°W)
Time: 23:12:48
(UTC+00:00)

Cosmos 1400 Rocket - Pass Details

Date: 29 October 2020
Orbit: 521 x 568 km, 81.2° (Epoch: 28 November)

Event Time Altitude Azimuth Distance (km) Brightness Sun altitude
Rises 23:26:09 0° 182° (S) 2,750 6.6 -6.3°
Reaches altitude 10° 23:28:20 10° 180° (S) 1,856 5.7 -6.7°
Maximum altitude 23:32:25 70° 97° (E) 603 2.8 -7.5°
Drops below altitude 10° 23:36:29 10° 14° (NNE) 1,852 5.3 -8.3°
Sets 23:38:39 0° 12° (NNE) 2,744 6.1 -8.7°
